DW4212 Weather Reports


Display with metric or nautical units.
time (UTC)temp
F
wind
direction
speed
MPH
gust
MPH
rain 1hr
in
rain 24hr
in
rain mn
in
humidity
%
barometer
mb
20260905190922 82 22 0.0 4.0 0.00 0.00 0.00 33 1025.8
20260905185923 82 324 0.0 5.0 0.00 0.00 0.00 33 1025.8
20260905184910 83 327 0.0 6.0 0.00 0.00 0.00 32 1025.6
20260905183919 83 20 1.0 8.0 0.00 0.00 0.00 32 1025.7
20260905182924 84 325 0.0 8.0 0.00 0.00 0.00 31 1025.6
20260905181912 84 321 2.0 8.0 0.00 0.00 0.00 30 1025.6
20260905180919 85 336 0.0 6.0 0.00 0.00 0.00 30 1025.5
20260905175920 86 26 1.0 9.0 0.00 0.00 0.00 29 1025.5
20260905174913 86 344 1.0 5.0 0.00 0.00 0.00 28 1025.4
20260905173921 87 53 1.0 6.0 0.00 0.00 0.00 27 1025.3
20260905172923 87 304 1.0 8.0 0.00 0.00 0.00 27 1025.3
20260905170930 89 5 0.0 5.0 0.00 0.00 0.00 25 1025.3
20260905165929 89 346 0.0 9.0 0.00 0.00 0.00 25 1025.3
20260905164914 89 17 1.0 6.0 0.00 0.00 0.00 25 1025.3
20260905163925 90 28 0.0 2.0 0.00 0.00 0.00 25 1025.1
20260905162930 90 355 0.0 5.0 0.00 0.00 0.00 24 1025.1
20260905161920 90 355 1.0 5.0 0.00 0.00 0.00 24 1025.2
20260905160927 90 355 0.0 3.0 0.00 0.00 0.00 24 1025.3
20260905155929 90 355 0.0 4.0 0.00 0.00 0.00 24 1025.2
20260905154921 90 355 0.0 5.0 0.00 0.00 0.00 24 1025.3
20260905153930 90 5 1.0 5.0 0.00 0.00 0.00 24 1025.3
20260905152911 91 333 0.0 4.0 0.00 0.00 0.00 24 1025.3
20260905151920 91 336 1.0 6.0 0.00 0.00 0.00 23 1025.4
20260905150911 92 259 0.0 3.0 0.00 0.00 0.00 23 1025.3
20260905145913 92 251 0.0 3.0 0.00 0.00 0.00 21 1025.2
20260905144921 93 251 0.0 1.0 0.00 0.00 0.00 21 1025.4
20260905143913 92 251 0.0 5.0 0.00 0.00 0.00 23 1025.4
20260905142915 92 246 0.0 2.0 0.00 0.00 0.00 23 1025.5
20260905141925 92 246 0.0 4.0 0.00 0.00 0.00 24 1025.6
20260905140912 92 246 1.0 6.0 0.00 0.00 0.00 24 1025.8
20260905135919 92 250 2.0 7.0 0.00 0.00 0.00 23 1025.9
20260905135008 92 275 1.0 7.0 0.00 0.00 0.00 23 1026.1
20260905133912 92 191 0.0 1.0 0.00 0.00 0.00 24 1026.2
20260905132913 92 191 0.0 2.0 0.00 0.00 0.00 23 1026.2
20260905131943 91 190 0.0 4.0 0.00 0.00 0.00 25 1026.2
20260905130935 91 196 0.0 2.0 0.00 0.00 0.00 24 1026.3
20260905125932 91 207 0.0 3.0 0.00 0.00 0.00 25 1026.3
20260905124941 91 237 1.0 6.0 0.00 0.00 0.00 24 1026.5
20260905123949 91 218 0.0 6.0 0.00 0.00 0.00 25 1026.5
20260905122951 90 215 0.0 4.0 0.00 0.00 0.00 26 1026.5
20260905121940 90 225 1.0 6.0 0.00 0.00 0.00 26 1026.6
20260905120932 89 166 0.0 7.0 0.00 0.00 0.00 28 1026.7
20260905115950 90 207 0.0 6.0 0.00 0.00 0.00 27 1026.7
20260905114936 90 192 1.0 7.0 0.00 0.00 0.00 26 1027.0
20260905113946 91 188 1.0 8.0 0.00 0.00 0.00 25 1027.0
20260905112945 92 180 0.0 8.0 0.00 0.00 0.00 26 1027.0
20260905111931 92 183 1.0 8.0 0.00 0.00 0.00 26 1026.9
20260905110943 91 185 1.0 9.0 0.00 0.00 0.00 27 1026.9
20260905105945 91 183 2.0 7.0 0.00 0.00 0.00 26 1027.0
20260905104931 91 180 1.0 7.0 0.00 0.00 0.00 27 1027.0
20260905102951 89 175 0.0 5.0 0.00 0.00 0.00 28 1027.0
20260905101941 89 175 0.0 8.0 0.00 0.00 0.00 28 1027.1
20260905100950 88 158 0.0 5.0 0.00 0.00 0.00 28 1027.1
20260905095931 87 158 2.0 7.0 0.00 0.00 0.00 28 1027.1
20260905094940 86 146 0.0 6.0 0.00 0.00 0.00 30 1027.2
20260905093948 85 23 0.0 5.0 0.00 0.00 0.00 31 1027.1
20260905092948 85 22 0.0 0.0 0.00 0.00 0.00 32 1026.9
20260905091939 85 22 0.0 1.0 0.00 0.00 0.00 31 1026.8
20260905090950 85 22 0.0 1.0 0.00 0.00 0.00 31 1026.8
20260905085950 84 22 0.0 1.0 0.00 0.00 0.00 31 1026.7
20260905084938 83 19 0.0 1.0 0.00 0.00 0.00 32 1026.6
20260905083947 83 18 0.0 2.0 0.00 0.00 0.00 32 1026.6
20260905082931 82 17 0.0 1.0 0.00 0.00 0.00 33 1026.7
20260905081940 81 17 0.0 0.0 0.00 0.00 0.00 34 1026.7
20260905080949 82 17 0.0 2.0 0.00 0.00 0.00 33 1026.7
20260905075951 82 17 0.0 0.0 0.00 0.00 0.00 33 1026.6
20260905074939 81 17 0.0 0.0 0.00 0.00 0.00 33 1026.6
20260905073946 80 17 0.0 0.0 0.00 0.00 0.00 35 1026.5
20260905072932 79 17 0.0 0.0 0.00 0.00 0.00 35 1026.4
20260905071939 79 17 0.0 0.0 0.00 0.00 0.00 35 1026.3
20260905070928 80 17 0.0 0.0 0.00 0.00 0.00 34 1026.2
20260905065926 78 17 0.0 0.0 0.00 0.00 0.00 36 1026.1
20260905064919 76 17 0.0 0.0 0.00 0.00 0.00 39 1026.0
20260905063929 74 17 0.0 0.0 0.00 0.00 0.00 39 1025.9
20260905062928 72 17 0.0 0.0 0.00 0.00 0.00 41 1025.9
20260905061918 72 17 0.0 0.0 0.00 0.00 0.00 41 1025.9
20260905060912 72 17 0.0 0.0 0.00 0.00 0.00 40 1025.9
20260905055925 72 17 0.0 0.0 0.00 0.00 0.00 39 1025.7
20260905054911 72 17 0.0 0.0 0.00 0.00 0.00 38 1025.7
20260905053918 74 17 0.0 0.0 0.00 0.00 0.00 37 1025.7
20260905052924 75 17 0.0 0.0 0.00 0.00 0.00 36 1025.7
20260905051911 76 17 0.0 0.0 0.00 0.00 0.00 37 1025.6
20260905050918 76 17 0.0 0.0 0.00 0.00 0.00 36 1025.6
20260905045920 76 17 0.0 0.0 0.00 0.00 0.00 36 1025.6
20260905044913 76 17 0.0 0.0 0.00 0.00 0.00 36 1025.6
20260905043921 75 17 0.0 2.0 0.00 0.00 0.00 36 1025.6
20260905042924 75 17 0.0 0.0 0.00 0.00 0.00 36 1025.6
20260905041913 74 17 0.0 0.0 0.00 0.00 0.00 36 1025.6
20260905040926 75 17 0.0 0.0 0.00 0.00 0.00 36 1025.6
20260905035927 75 17 0.0 0.0 0.00 0.00 0.00 36 1025.5
20260905034916 76 17 0.0 0.0 0.00 0.00 0.00 33 1025.6
20260905033910 76 17 0.0 0.0 0.00 0.00 0.00 33 1025.6
20260905032912 76 17 0.0 0.0 0.00 0.00 0.00 32 1025.6
20260905031921 76 17 0.0 0.0 0.00 0.00 0.00 33 1025.6
20260905030912 76 17 0.0 0.0 0.00 0.00 0.00 33 1025.7
20260905025918 77 17 0.0 0.0 0.00 0.00 0.00 33 1025.7
20260905024927 77 17 0.0 0.0 0.00 0.00 0.00 32 1025.7
20260905023916 77 17 0.0 0.0 0.00 0.00 0.00 32 1025.7
20260905022919 77 17 0.0 0.0 0.00 0.00 0.00 31 1025.8
20260905021912 78 17 0.0 0.0 0.00 0.00 0.00 31 1025.8
20260905020920 78 17 0.0 0.0 0.00 0.00 0.00 30 1025.8
20260905015921 79 17 0.0 0.0 0.00 0.00 0.00 30 1025.8
20260905014928 79 17 0.0 0.0 0.00 0.00 0.00 29 1026.0
20260905013920 79 17 0.0 0.0 0.00 0.00 0.00 29 1025.9
20260905012923 79 17 0.0 0.0 0.00 0.00 0.00 28 1025.9
20260905011911 79 17 0.0 0.0 0.00 0.00 0.00 28 1025.9
20260905010920 79 17 0.0 0.0 0.00 0.00 0.00 28 1025.9
20260905005926 79 17 0.0 0.0 0.00 0.00 0.00 28 1025.9
20260905004913 79 17 0.0 2.0 0.00 0.00 0.00 28 1026.0
20260905003923 79 18 0.0 4.0 0.00 0.00 0.00 28 1026.0
20260905002925 80 17 0.0 1.0 0.00 0.00 0.00 27 1026.1
20260905001917 80 17 0.0 4.0 0.00 0.00 0.00 28 1026.1
20260905000924 81 13 0.0 0.0 0.00 0.00 0.00 27 1026.0
20260904235924 82 13 0.0 4.0 0.00 0.00 0.00 26 1026.1
20260904234913 82 11 0.0 3.0 0.00 0.00 0.00 26 1026.2
20260904233925 81 9 0.0 0.0 0.00 0.00 0.00 27 1026.2
20260904232927 80 9 0.0 0.0 0.00 0.00 0.00 27 1026.3
20260904231915 80 9 0.0 0.0 0.00 0.00 0.00 27 1026.3
20260904230923 78 9 0.0 0.0 0.00 0.00 0.00 28 1026.3
20260904225927 78 9 0.0 0.0 0.00 0.00 0.00 28 1026.3
20260904224914 78 9 0.0 0.0 0.00 0.00 0.00 28 1026.3
20260904223923 77 9 0.0 0.0 0.00 0.00 0.00 29 1026.4
20260904222923 78 9 0.0 2.0 0.00 0.00 0.00 30 1026.3
20260904221916 82 360 0.0 0.0 0.00 0.00 0.00 24 1025.9
20260904220923 82 360 0.0 0.0 0.00 0.00 0.00 24 1025.9
20260904215922 82 360 0.0 0.0 0.00 0.00 0.00 24 1025.9
20260904214914 83 360 0.0 0.0 0.00 0.00 0.00 24 1025.9
20260904213917 83 360 0.0 0.0 0.00 0.00 0.00 24 1025.9
20260904212913 83 360 0.0 0.0 0.00 0.00 0.00 23 1025.9
20260904211921 83 360 0.0 0.0 0.00 0.00 0.00 23 1026.0
20260904210913 84 360 0.0 0.0 0.00 0.00 0.00 23 1026.2
20260904205911 84 355 0.0 3.0 0.00 0.00 0.00 23 1026.2
20260904204920 84 355 0.0 2.0 0.00 0.00 0.00 23 1026.1
20260904203928 84 355 0.0 3.0 0.00 0.00 0.00 23 1026.1
20260904202913 84 355 0.0 1.0 0.00 0.00 0.00 23 1026.0
20260904201921 85 355 0.0 1.0 0.00 0.00 0.00 22 1025.8
20260904200930 85 355 0.0 4.0 0.00 0.00 0.00 22 1025.8
20260904195911 84 355 0.0 0.0 0.00 0.00 0.00 23 1025.9
20260904194923 84 355 0.0 2.0 0.00 0.00 0.00 23 1025.9
20260904193912 85 355 0.0 0.0 0.00 0.00 0.00 22 1025.8
20260904192930 85 355 0.0 3.0 0.00 0.00 0.00 23 1025.7
20260904191919 85 355 0.0 0.0 0.00 0.00 0.00 22 1025.5